KZR878 UATG-UAAA

Flight info

Callsign KZR878
Flight time N/A
Altitude 35000
Route GOGDI DCT LEPSI DCT RIKRI DCT PEMOL DCT TISRA DCT ABDUN DCT SANUR DCT INKUM DCT AGMUR DCT BUDET DCT KZO DCT DIKAM DCT LUKUR DCT REMOL DCT TUROK DCT GAMBU DCT KUGIR DCT RISAS DCT TOMGO DCT DEKED DCT AGLEK DCT BINRI DCT EKLAT
Aircraft A321/M-SDE3FGHIRWY/LB1

Departure

Time 2026-04-30 13:57
Airport Atyrau International Airport (UATG)

Arrival

Time N/A
Airport Almaty International Airport (UAAA)
Time Latitude Longitude Altitude Speed Heading
2026-04-30 13:43 47.12145 51.82953 -81 ft 0 kts 329°
2026-04-30 13:50 47.12149 51.82950 -81 ft 1 kts 329°
2026-04-30 13:50 47.12174 51.82923 -84 ft 3 kts 314°
2026-04-30 13:50 47.12180 51.82890 -82 ft 4 kts 270°
2026-04-30 13:51 47.12168 51.82852 -85 ft 5 kts 241°
2026-04-30 13:51 47.12153 51.82806 -83 ft 5 kts 249°
2026-04-30 13:51 47.12138 51.82749 -86 ft 6 kts 244°
2026-04-30 13:51 47.12108 51.82704 -84 ft 6 kts 190°
2026-04-30 13:52 47.12066 51.82729 -84 ft 7 kts 150°
2026-04-30 13:52 47.12020 51.82767 -83 ft 8 kts 150°
2026-04-30 13:52 47.11969 51.82810 -82 ft 9 kts 150°
2026-04-30 13:52 47.11913 51.82858 -81 ft 10 kts 149°
2026-04-30 13:53 47.11850 51.82865 -84 ft 10 kts 216°
2026-04-30 13:53 47.11812 51.82779 -84 ft 11 kts 239°
2026-04-30 13:53 47.11773 51.82682 -83 ft 11 kts 239°
2026-04-30 13:53 47.11731 51.82578 -83 ft 12 kts 239°
2026-04-30 13:54 47.11680 51.82482 -83 ft 12 kts 203°
2026-04-30 13:54 47.11600 51.82525 -84 ft 14 kts 149°
2026-04-30 13:54 47.11505 51.82607 -84 ft 17 kts 150°
2026-04-30 13:54 47.11397 51.82698 -87 ft 19 kts 150°
2026-04-30 13:55 47.11277 51.82799 -85 ft 20 kts 150°
2026-04-30 13:55 47.11158 51.82903 -82 ft 13 kts 142°
2026-04-30 13:55 47.11122 51.83022 -82 ft 14 kts 110°
2026-04-30 13:55 47.11062 51.83016 -70 ft 10 kts 250°
2026-04-30 13:56 47.11110 51.82943 -83 ft 16 kts 329°
2026-04-30 13:56 47.11394 51.82702 -86 ft 82 kts 330°
2026-04-30 13:56 47.12072 51.82125 -84 ft 140 kts 330°
2026-04-30 13:56 47.13032 51.81296 120 ft 168 kts 330°
2026-04-30 13:57 47.14040 51.80439 825 ft 167 kts 332°
2026-04-30 13:57 47.15039 51.79594 1596 ft 166 kts 333°
2026-04-30 13:57 47.16092 51.78706 1936 ft 184 kts 332°
2026-04-30 13:57 47.17261 51.77719 2097 ft 206 kts 333°
2026-04-30 13:58 47.18684 51.77204 2216 ft 227 kts
2026-04-30 13:58 47.21006 51.80384 3189 ft 261 kts 79°
2026-04-30 13:58 47.20826 51.83075 3857 ft 269 kts 99°
2026-04-30 13:59 47.20399 51.85741 4684 ft 268 kts 100°
2026-04-30 13:59 47.19953 51.88417 5378 ft 271 kts 100°
2026-04-30 13:59 47.19507 51.91124 6054 ft 274 kts 100°
2026-04-30 13:59 47.19082 51.93875 6721 ft 277 kts 99°
2026-04-30 14:00 47.18733 51.96691 7306 ft 282 kts 98°
2026-04-30 14:00 47.18127 52.02469 8459 ft 293 kts 96°
2026-04-30 14:00 47.17818 52.05458 9078 ft 297 kts 98°
2026-04-30 14:01 47.17494 52.08495 9670 ft 302 kts 98°
2026-04-30 14:01 47.17158 52.11584 10198 ft 309 kts 99°
2026-04-30 14:01 47.16798 52.14813 10326 ft 330 kts 99°
2026-04-30 14:01 47.16415 52.18243 10454 ft 349 kts 99°
2026-04-30 14:02 47.16010 52.21851 10641 ft 365 kts 99°
2026-04-30 14:02 47.15596 52.25503 11089 ft 370 kts 99°
2026-04-30 14:02 47.15173 52.29240 11656 ft 372 kts 99°
2026-04-30 14:02 47.14748 52.33008 12189 ft 376 kts 99°
2026-04-30 14:03 47.14316 52.36818 12749 ft 378 kts 99°
2026-04-30 14:03 47.13881 52.40641 13316 ft 381 kts 100°
2026-04-30 14:03 47.13440 52.44497 13863 ft 384 kts 100°
2026-04-30 14:03 47.12994 52.48373 14326 ft 386 kts 100°
2026-04-30 14:04 47.12546 52.52276 14823 ft 389 kts 100°
2026-04-30 14:04 47.12095 52.56209 15298 ft 392 kts 101°
2026-04-30 14:04 47.11640 52.60168 15757 ft 395 kts 101°
2026-04-30 14:04 47.11176 52.64164 16229 ft 398 kts 101°
2026-04-30 14:05 47.10713 52.68141 16683 ft 401 kts 101°
2026-04-30 14:05 47.10242 52.72187 17139 ft 404 kts 102°
2026-04-30 14:05 47.09766 52.76270 17591 ft 407 kts 102°
2026-04-30 14:05 47.09281 52.80379 18038 ft 410 kts 102°
2026-04-30 14:06 47.08790 52.84523 18453 ft 413 kts 102°
2026-04-30 14:06 47.07802 52.92866 19207 ft 417 kts 102°
2026-04-30 14:07 47.06804 53.01300 19983 ft 421 kts 102°
2026-04-30 14:07 47.06299 53.05540 20370 ft 423 kts 102°
2026-04-30 14:07 47.05783 53.09803 20749 ft 425 kts 103°
2026-04-30 14:08 47.04743 53.18333 21485 ft 430 kts 103°
2026-04-30 14:08 47.04214 53.22663 21872 ft 432 kts 103°
2026-04-30 14:08 47.03158 53.31378 22590 ft 436 kts 103°
2026-04-30 14:09 47.02625 53.35770 22968 ft 438 kts 103°
2026-04-30 14:09 47.02085 53.40177 23331 ft 440 kts 103°
2026-04-30 14:09 47.00991 53.48977 23976 ft 444 kts 103°
2026-04-30 14:10 47.00424 53.53489 24291 ft 445 kts 103°
2026-04-30 14:10 46.99863 53.57959 24599 ft 447 kts 103°
2026-04-30 14:10 46.99310 53.62386 24893 ft 448 kts 104°
2026-04-30 14:10 46.98751 53.66878 25232 ft 449 kts 104°
2026-04-30 14:11 46.98188 53.71391 25537 ft 450 kts 104°
2026-04-30 14:11 46.97623 53.75906 25838 ft 451 kts 105°
2026-04-30 14:11 46.97049 53.80424 26135 ft 452 kts 105°
2026-04-30 14:11 46.96468 53.84963 26413 ft 454 kts 105°
2026-04-30 14:12 46.95888 53.89508 26703 ft 455 kts 105°
2026-04-30 14:12 46.95307 53.94067 26987 ft 456 kts 105°
2026-04-30 14:12 46.94722 53.98640 27265 ft 458 kts 105°
2026-04-30 14:12 46.94334 54.01667 27441 ft 459 kts 105°
2026-04-30 14:13 46.93547 54.07762 27812 ft 461 kts 106°
2026-04-30 14:13 46.92946 54.12383 28078 ft 462 kts 106°
2026-04-30 14:13 46.92342 54.17012 28341 ft 463 kts 106°
2026-04-30 14:13 46.91735 54.21654 28587 ft 465 kts 106°
2026-04-30 14:14 46.91124 54.26300 28827 ft 465 kts 107°
2026-04-30 14:14 46.90510 54.30954 29072 ft 466 kts 107°
2026-04-30 14:14 46.89898 54.35609 29270 ft 467 kts 106°
2026-04-30 14:14 46.89285 54.40278 29488 ft 468 kts 107°
2026-04-30 14:15 46.88678 54.44892 29779 ft 466 kts 107°
2026-04-30 14:15 46.88061 54.49539 30073 ft 465 kts 107°
2026-04-30 14:15 46.87440 54.54174 30319 ft 464 kts 107°
2026-04-30 14:15 46.86818 54.58804 30549 ft 464 kts 107°
2026-04-30 14:16 46.86193 54.63430 30755 ft 464 kts 107°
2026-04-30 14:16 46.85569 54.68054 30969 ft 464 kts 107°
2026-04-30 14:16 46.84945 54.72683 31180 ft 464 kts 107°
2026-04-30 14:16 46.84319 54.77314 31382 ft 464 kts 107°
2026-04-30 14:17 46.83694 54.81928 31602 ft 463 kts 107°
2026-04-30 14:17 46.83064 54.86543 31762 ft 463 kts 107°
2026-04-30 14:17 46.82439 54.91099 31968 ft 463 kts 107°
2026-04-30 14:17 46.81802 54.95708 32176 ft 463 kts 107°
2026-04-30 14:18 46.81163 55.00311 32372 ft 463 kts 107°
2026-04-30 14:18 46.80523 55.04914 32569 ft 463 kts 107°
2026-04-30 14:18 46.79244 55.14118 32963 ft 463 kts 107°
2026-04-30 14:19 46.77957 55.23315 33349 ft 462 kts 107°
2026-04-30 14:19 46.77311 55.27908 33540 ft 462 kts 107°
2026-04-30 14:19 46.76666 55.32502 33730 ft 462 kts 107°
2026-04-30 14:20 46.76022 55.37090 33880 ft 462 kts 107°
2026-04-30 14:20 46.75373 55.41682 34043 ft 462 kts 107°
2026-04-30 14:20 46.74069 55.50853 34342 ft 462 kts 107°
2026-04-30 14:21 46.73415 55.55430 34492 ft 461 kts 107°
2026-04-30 14:21 46.72757 55.60012 34629 ft 461 kts 107°
2026-04-30 14:21 46.71434 55.69160 34924 ft 461 kts 107°
2026-04-30 14:22 46.70770 55.73742 34980 ft 462 kts 107°
2026-04-30 14:22 46.68779 55.87413 34973 ft 461 kts 107°
2026-04-30 14:23 46.66094 56.05645 34972 ft 461 kts 107°
2026-04-30 14:24 46.64062 56.19314 34970 ft 460 kts 107°
2026-04-30 14:25 46.61320 56.37525 34956 ft 461 kts 107°
2026-04-30 14:26 46.59241 56.51178 34972 ft 461 kts 107°
2026-04-30 14:27 46.57164 56.64776 34974 ft 461 kts 107°
2026-04-30 14:27 46.55770 56.73866 34967 ft 460 kts 108°
2026-04-30 14:28 46.53899 56.85936 34974 ft 459 kts 108°
2026-04-30 14:28 46.52483 56.94978 34970 ft 459 kts 108°
2026-04-30 14:29 46.49638 57.13016 34963 ft 458 kts 108°
2026-04-30 14:31 46.46053 57.35516 34937 ft 457 kts 108°
2026-04-30 14:31 46.43888 57.48944 34946 ft 456 kts 108°
2026-04-30 14:32 46.41706 57.62364 34952 ft 455 kts 109°
2026-04-30 14:33 46.40252 57.71241 34945 ft 455 kts 109°
2026-04-30 14:33 46.38041 57.84619 34924 ft 455 kts 109°
2026-04-30 14:34 46.36573 57.93513 34920 ft 454 kts 109°
2026-04-30 14:34 46.35098 58.02389 34937 ft 452 kts 109°
2026-04-30 14:35 46.32887 58.15584 34939 ft 451 kts 109°
2026-04-30 14:36 46.31403 58.24400 34938 ft 451 kts 109°
2026-04-30 14:36 46.29909 58.33193 34916 ft 450 kts 109°
2026-04-30 14:37 46.28408 58.41984 34914 ft 450 kts 109°
2026-04-30 14:37 46.26898 58.50782 34895 ft 450 kts 110°
2026-04-30 14:38 46.25393 58.59546 34921 ft 449 kts 110°
2026-04-30 14:38 46.23888 58.68285 34922 ft 448 kts 110°
2026-04-30 14:39 46.22382 58.76952 34923 ft 448 kts 110°
2026-04-30 14:39 46.20853 58.85668 34897 ft 447 kts 110°
2026-04-30 14:40 46.18554 58.98756 34901 ft 448 kts 110°
2026-04-30 14:40 46.17012 59.07477 34905 ft 449 kts 110°
2026-04-30 14:41 46.15472 59.16131 34895 ft 448 kts 111°
2026-04-30 14:41 46.13916 59.24832 34903 ft 448 kts 111°
2026-04-30 14:42 46.12360 59.33534 34879 ft 448 kts 111°
2026-04-30 14:42 46.10789 59.42229 34890 ft 448 kts 111°
2026-04-30 14:43 46.09205 59.50905 34894 ft 448 kts 111°
2026-04-30 14:43 46.07619 59.59586 34891 ft 448 kts 111°
2026-04-30 14:44 46.06032 59.68273 34868 ft 448 kts 111°
2026-04-30 14:44 46.04460 59.76901 34887 ft 447 kts 111°
2026-04-30 14:45 46.02862 59.85545 34880 ft 446 kts 111°
2026-04-30 14:45 46.01256 59.94178 34896 ft 446 kts 111°
2026-04-30 14:46 45.99654 60.02809 34889 ft 446 kts 111°
2026-04-30 14:46 45.98053 60.11365 34896 ft 446 kts 112°
2026-04-30 14:47 45.96433 60.19983 34904 ft 446 kts 112°
2026-04-30 14:47 45.94810 60.28580 34864 ft 445 kts 111°
2026-04-30 14:48 45.93180 60.37153 34891 ft 445 kts 111°
2026-04-30 14:48 45.91549 60.45720 34899 ft 444 kts 111°
2026-04-30 14:49 45.89912 60.54273 34900 ft 444 kts 111°
2026-04-30 14:49 45.88269 60.62814 34902 ft 444 kts 112°
2026-04-30 14:50 45.85788 60.75614 34891 ft 444 kts 112°
2026-04-30 14:51 45.83300 60.88396 34901 ft 444 kts 112°
2026-04-30 14:52 45.80807 61.01128 34906 ft 444 kts 112°
2026-04-30 14:52 45.78293 61.13893 34908 ft 444 kts 112°
2026-04-30 14:53 45.75754 61.26651 34895 ft 444 kts 112°
2026-04-30 14:54 45.72346 61.43662 34881 ft 445 kts 111°
2026-04-30 14:55 45.69781 61.56415 34896 ft 446 kts 111°
2026-04-30 14:56 45.66315 61.73480 34905 ft 447 kts 112°
2026-04-30 14:57 45.63702 61.86281 34909 ft 447 kts 112°
2026-04-30 14:58 45.60178 62.03314 34897 ft 447 kts 112°
2026-04-30 14:58 45.57535 62.16023 34884 ft 447 kts 112°
2026-04-30 15:00 45.53067 62.37300 34899 ft 448 kts 112°
2026-04-30 15:01 45.49478 62.54290 34892 ft 449 kts 112°
2026-04-30 15:01 45.46749 62.67073 34885 ft 450 kts 112°
2026-04-30 15:02 45.44918 62.75610 34888 ft 450 kts 112°
2026-04-30 15:03 45.40319 62.96942 34900 ft 451 kts 112°
2026-04-30 15:04 45.35686 63.18189 34892 ft 450 kts 112°
2026-04-30 15:06 45.31008 63.39411 34895 ft 450 kts 112°
2026-04-30 15:07 45.27244 63.56373 34871 ft 450 kts 112°
2026-04-30 15:08 45.23456 63.73287 34858 ft 451 kts 112°
2026-04-30 15:09 45.18671 63.94481 34858 ft 452 kts 112°
2026-04-30 15:10 45.14805 64.11456 34846 ft 453 kts 112°
2026-04-30 15:11 45.08940 64.36899 34838 ft 455 kts 112°
2026-04-30 15:13 45.03992 64.58171 34842 ft 456 kts 112°
2026-04-30 15:14 44.95439 64.86758 34816 ft 452 kts 119°
2026-04-30 15:17 44.82521 65.22233 34836 ft 452 kts 122°
2026-04-30 15:19 44.70743 65.53567 34835 ft 457 kts 116°